Location: Martley
(52.2333°N, 2.3667°W)
Time: 07:14:03
(UTC+00:00)

Cosmos 724 - Pass Details

Date: 11 December 2019
Orbit: 863 x 932 km, 65.6° (Epoch: 20 January)

Event Time Altitude Azimuth Distance (km) Brightness Sun altitude
Exits shadow 05:09:22 59° 226° (SW) 1,030 4.3 -26.0°
Maximum altitude 05:10:35 87° 311° (NW) 903 4.2 -25.8°
Drops below altitude 10° 05:16:32 10° 41° (NE) 2,551 7.1 -24.9°
Sets 05:19:00 0° 42° (NE) 3,484 7.9 -24.5°
